Time,TemperatureF,DewpointF,PressureIn,WindDirection,WindDirectionDegrees,WindSpeedMPH,WindSpeedGustMPH,Humidity,HourlyPrecipIn,Conditions,Clouds,dailyrainin,SolarRadiationWatts/m^2,SoftwareType,DateUTC
2013-02-05 00:00:00,70.9,66.6,30.04,ESE,107,0.0,0.0,86,0.00,,,0.00,0.0,meteohub,2013-02-05 04:00:00,
2013-02-05 00:05:00,70.9,66.6,30.04,ESE,107,0.0,0.0,86,0.00,,,0.00,0.0,meteohub,2013-02-05 04:05:00,
2013-02-05 00:11:00,70.5,66.4,30.04,ESE,107,0.0,0.0,87,0.00,,,0.00,0.0,meteohub,2013-02-05 04:11:00,
2013-02-05 00:16:00,70.3,66.2,30.03,ESE,107,0.0,0.0,87,0.00,,,0.00,0.0,meteohub,2013-02-05 04:16:00,
2013-02-05 00:21:00,70.3,66.2,30.03,ESE,107,0.0,0.0,87,0.00,,,0.00,0.0,meteohub,2013-02-05 04:21:00,
2013-02-05 00:26:00,70.3,66.2,30.03,ESE,107,0.0,0.0,87,0.00,,,0.00,0.0,meteohub,2013-02-05 04:26:00,
2013-02-05 00:31:00,70.3,66.6,30.03,ESE,106,0.0,0.0,88,0.00,,,0.00,0.0,meteohub,2013-02-05 04:31:00,
2013-02-05 00:36:00,70.2,66.4,30.03,ESE,107,0.0,0.0,88,0.00,,,0.00,0.0,meteohub,2013-02-05 04:36:00,
2013-02-05 00:41:00,70.2,66.4,30.03,ESE,106,0.0,0.0,88,0.00,,,0.00,0.0,meteohub,2013-02-05 04:41:00,
2013-02-05 00:46:00,70.2,66.4,30.03,ESE,106,0.0,0.0,88,0.00,,,0.00,0.0,meteohub,2013-02-05 04:46:00,
2013-02-05 00:51:00,70.0,66.2,30.03,ESE,107,0.0,0.0,88,0.00,,,0.00,0.0,meteohub,2013-02-05 04:51:00,
2013-02-05 00:56:00,69.8,66.0,30.03,ESE,107,0.0,0.0,88,0.00,,,0.00,0.0,meteohub,2013-02-05 04:56:00,
2013-02-05 01:00:00,69.6,66.2,30.02,ESE,107,0.0,0.0,89,0.00,,,0.00,0.0,meteohub,2013-02-05 05:00:00,
2013-02-05 01:02:00,69.6,66.2,30.02,ESE,107,0.0,0.0,89,0.00,,,0.00,0.0,meteohub,2013-02-05 05:02:00,
2013-02-05 01:07:00,69.6,66.2,30.02,ESE,107,0.0,0.0,89,0.00,,,0.00,0.0,meteohub,2013-02-05 05:07:00,
2013-02-05 01:12:00,69.6,66.2,30.02,ESE,107,0.0,0.0,89,0.00,,,0.00,0.0,meteohub,2013-02-05 05:12:00,
2013-02-05 01:17:00,69.4,66.0,30.02,ESE,107,0.0,0.0,89,0.00,,,0.00,0.0,meteohub,2013-02-05 05:17:00,
2013-02-05 01:22:00,69.4,66.0,30.02,ESE,107,0.0,0.0,89,0.00,,,0.00,0.0,meteohub,2013-02-05 05:22:00,
2013-02-05 01:27:00,69.4,66.0,30.02,ESE,106,0.0,0.0,89,0.00,,,0.00,0.0,meteohub,2013-02-05 05:27:00,
2013-02-05 01:32:00,69.3,66.2,30.02,ESE,107,0.0,0.0,90,0.00,,,0.00,0.0,meteohub,2013-02-05 05:32:00,
2013-02-05 01:37:00,69.4,66.4,30.02,ESE,107,0.0,0.0,90,0.00,,,0.00,0.0,meteohub,2013-02-05 05:37:00,
2013-02-05 01:42:00,69.3,66.2,30.02,ESE,107,0.0,0.0,90,0.00,,,0.00,0.0,meteohub,2013-02-05 05:42:00,
2013-02-05 01:47:00,69.3,66.2,30.02,ESE,109,0.0,0.0,90,0.00,,,0.00,0.0,meteohub,2013-02-05 05:47:00,
2013-02-05 01:53:00,69.3,66.2,30.02,ESE,107,0.0,0.0,90,0.00,,,0.00,0.0,meteohub,2013-02-05 05:53:00,
2013-02-05 01:58:00,69.3,66.2,30.01,ESE,107,0.0,0.0,90,0.00,,,0.00,0.0,meteohub,2013-02-05 05:58:00,
2013-02-05 02:03:00,69.1,66.0,30.01,ESE,106,0.0,0.0,90,0.00,,,0.00,0.0,meteohub,2013-02-05 06:03:00,
2013-02-05 02:08:00,69.1,66.0,30.01,ESE,107,0.0,0.0,90,0.00,,,0.00,0.0,meteohub,2013-02-05 06:08:00,
2013-02-05 02:13:00,69.1,66.0,30.01,ESE,107,0.0,0.0,90,0.00,,,0.00,0.0,meteohub,2013-02-05 06:13:00,
2013-02-05 02:18:00,69.1,66.4,30.01,ESE,107,0.0,0.0,91,0.00,,,0.00,0.0,meteohub,2013-02-05 06:18:00,
2013-02-05 02:23:00,69.1,66.4,30.01,ESE,109,0.0,0.0,91,0.00,,,0.00,0.0,meteohub,2013-02-05 06:23:00,
2013-02-05 02:28:00,69.1,66.4,30.01,ESE,107,0.0,0.0,91,0.00,,,0.00,0.0,meteohub,2013-02-05 06:28:00,
2013-02-05 02:33:00,69.1,66.4,30.01,ESE,107,0.0,0.0,91,0.00,,,0.00,0.0,meteohub,2013-02-05 06:33:00,
2013-02-05 02:38:00,68.9,66.2,30.01,ESE,106,0.0,0.0,91,0.00,,,0.00,0.0,meteohub,2013-02-05 06:38:00,
2013-02-05 02:43:00,68.9,66.2,30.01,ESE,109,0.0,0.0,91,0.00,,,0.00,0.0,meteohub,2013-02-05 06:43:00,
2013-02-05 02:48:00,68.9,66.2,30.01,ESE,107,0.0,0.0,91,0.00,,,0.00,0.0,meteohub,2013-02-05 06:48:00,
2013-02-05 02:53:00,68.7,66.0,30.01,ESE,106,0.0,0.0,91,0.00,,,0.00,0.0,meteohub,2013-02-05 06:53:00,
2013-02-05 02:58:00,68.7,66.4,30.01,ESE,107,0.0,0.0,92,0.00,,,0.00,0.0,meteohub,2013-02-05 06:58:00,
2013-02-05 03:03:00,68.7,66.4,30.01,ESE,107,0.0,0.0,92,0.00,,,0.00,0.0,meteohub,2013-02-05 07:03:00,
2013-02-05 03:08:00,68.7,66.4,30.01,ESE,107,0.0,0.0,92,0.00,,,0.00,0.0,meteohub,2013-02-05 07:08:00,
2013-02-05 03:13:00,68.5,66.2,30.00,ESE,107,0.0,0.0,92,0.00,,,0.00,0.0,meteohub,2013-02-05 07:13:00,
2013-02-05 03:18:00,68.5,66.2,30.00,ESE,107,0.0,0.0,92,0.00,,,0.00,0.0,meteohub,2013-02-05 07:18:00,
2013-02-05 03:23:00,68.4,66.0,30.00,ESE,106,0.0,0.0,92,0.00,,,0.00,0.0,meteohub,2013-02-05 07:23:00,
2013-02-05 03:28:00,68.4,66.0,30.00,ESE,107,0.0,0.0,92,0.00,,,0.00,0.0,meteohub,2013-02-05 07:28:00,
2013-02-05 03:33:00,68.4,66.0,30.00,ESE,107,0.0,0.0,92,0.00,,,0.00,0.0,meteohub,2013-02-05 07:33:00,
2013-02-05 03:38:00,68.4,66.0,30.00,ESE,107,0.0,0.0,92,0.00,,,0.00,0.0,meteohub,2013-02-05 07:38:00,
2013-02-05 03:43:00,68.4,66.0,29.99,ESE,106,0.0,0.0,92,0.00,,,0.00,0.0,meteohub,2013-02-05 07:43:00,
2013-02-05 03:48:00,68.4,66.2,29.99,ESE,106,0.0,0.0,93,0.00,,,0.00,0.0,meteohub,2013-02-05 07:48:00,
2013-02-05 03:54:00,68.4,66.2,29.99,ESE,106,0.0,0.0,93,0.00,,,0.00,0.0,meteohub,2013-02-05 07:54:00,
2013-02-05 03:59:00,68.4,66.2,30.00,ESE,107,0.0,0.0,93,0.00,,,0.00,0.0,meteohub,2013-02-05 07:59:00,
2013-02-05 04:04:00,68.4,66.2,30.00,ESE,106,0.0,0.0,93,0.00,,,0.00,0.0,meteohub,2013-02-05 08:04:00,
2013-02-05 04:09:00,68.4,66.2,30.00,ESE,106,0.0,0.0,93,0.00,,,0.00,0.0,meteohub,2013-02-05 08:09:00,
2013-02-05 04:14:00,68.4,66.2,30.00,ESE,107,0.0,0.0,93,0.00,,,0.00,0.0,meteohub,2013-02-05 08:14:00,
2013-02-05 04:19:00,68.4,66.2,30.00,ESE,107,0.0,0.0,93,0.00,,,0.00,0.0,meteohub,2013-02-05 08:19:00,
2013-02-05 04:24:00,68.4,66.2,30.00,ESE,107,0.0,0.0,93,0.00,,,0.00,0.0,meteohub,2013-02-05 08:24:00,
2013-02-05 04:29:00,68.4,66.2,30.00,ESE,107,0.0,0.0,93,0.00,,,0.00,0.0,meteohub,2013-02-05 08:29:00,
2013-02-05 04:34:00,68.4,66.2,30.00,ESE,107,0.0,0.0,93,0.00,,,0.00,0.0,meteohub,2013-02-05 08:34:00,
2013-02-05 04:39:00,68.4,66.2,30.00,ESE,107,0.0,0.0,93,0.00,,,0.00,0.0,meteohub,2013-02-05 08:39:00,
2013-02-05 04:44:00,68.4,66.2,30.00,ESE,107,0.0,0.0,93,0.00,,,0.00,0.0,meteohub,2013-02-05 08:44:00,
2013-02-05 04:49:00,68.4,66.2,30.00,ESE,107,0.0,0.0,93,0.00,,,0.00,0.0,meteohub,2013-02-05 08:49:00,
2013-02-05 04:54:00,68.4,66.2,30.00,ESE,107,0.0,0.0,93,0.00,,,0.00,0.0,meteohub,2013-02-05 08:54:00,
2013-02-05 04:59:00,68.4,66.0,30.00,ESE,109,0.0,0.0,92,0.00,,,0.00,0.0,meteohub,2013-02-05 08:59:00,
2013-02-05 05:04:00,68.4,66.0,30.00,ESE,109,0.0,0.0,92,0.00,,,0.00,0.0,meteohub,2013-02-05 09:04:00,
2013-02-05 05:09:00,68.4,66.0,30.00,ESE,109,0.0,0.0,92,0.00,,,0.00,0.0,meteohub,2013-02-05 09:09:00,
2013-02-05 05:14:00,68.4,66.0,30.00,ESE,107,0.0,0.0,92,0.00,,,0.00,0.0,meteohub,2013-02-05 09:14:00,
2013-02-05 05:19:00,68.7,66.0,30.00,ESE,107,0.0,0.0,91,0.00,,,0.00,0.0,meteohub,2013-02-05 09:19:00,
2013-02-05 05:24:00,68.7,65.7,30.00,ESE,107,0.0,0.0,90,0.00,,,0.00,0.0,meteohub,2013-02-05 09:24:00,
2013-02-05 05:29:00,68.7,65.7,30.01,ESE,107,0.0,0.0,90,0.00,,,0.00,0.0,meteohub,2013-02-05 09:29:00,
2013-02-05 05:34:00,68.9,65.8,30.01,ESE,107,0.0,0.0,90,0.00,,,0.00,0.0,meteohub,2013-02-05 09:34:00,
2013-02-05 05:39:00,69.1,65.7,30.01,ESE,109,0.0,0.0,89,0.00,,,0.00,0.0,meteohub,2013-02-05 09:39:00,
2013-02-05 05:44:00,69.3,65.8,30.01,ESE,106,0.0,0.0,89,0.00,,,0.00,0.0,meteohub,2013-02-05 09:44:00,
2013-02-05 05:49:00,69.1,65.7,30.01,ESE,107,0.0,0.0,89,0.00,,,0.00,0.0,meteohub,2013-02-05 09:49:00,
2013-02-05 05:54:00,69.1,65.3,30.01,ESE,109,0.0,0.0,88,0.00,,,0.00,0.0,meteohub,2013-02-05 09:54:00,
2013-02-05 05:59:00,69.1,65.3,30.01,ESE,107,0.0,0.0,88,0.00,,,0.00,0.0,meteohub,2013-02-05 09:59:00,
2013-02-05 06:04:00,69.3,65.5,30.01,ESE,107,0.0,0.0,88,0.00,,,0.00,0.0,meteohub,2013-02-05 10:04:00,
2013-02-05 06:09:00,69.4,65.7,30.01,ESE,106,0.0,0.0,88,0.00,,,0.00,0.0,meteohub,2013-02-05 10:09:00,
2013-02-05 06:14:00,69.6,65.8,30.02,ESE,109,0.0,0.0,88,0.00,,,0.00,0.0,meteohub,2013-02-05 10:14:00,
2013-02-05 06:19:00,69.6,65.7,30.02,ESE,107,0.0,0.0,87,0.00,,,0.00,0.0,meteohub,2013-02-05 10:19:00,
2013-02-05 06:24:00,69.4,65.5,30.02,ESE,109,0.0,0.0,87,0.00,,,0.00,0.0,meteohub,2013-02-05 10:24:00,
2013-02-05 06:29:00,69.4,65.7,30.02,ESE,107,0.0,0.0,88,0.00,,,0.00,0.0,meteohub,2013-02-05 10:29:00,
2013-02-05 06:34:00,69.8,66.0,30.02,ESE,107,0.0,0.0,88,0.00,,,0.00,0.0,meteohub,2013-02-05 10:34:00,
2013-02-05 06:39:00,69.8,66.0,30.02,ESE,106,0.0,0.0,88,0.00,,,0.00,0.0,meteohub,2013-02-05 10:39:00,
2013-02-05 06:44:00,69.8,66.0,30.03,ESE,107,0.0,0.0,88,0.00,,,0.00,0.0,meteohub,2013-02-05 10:44:00,
2013-02-05 06:50:00,69.8,65.8,30.03,ESE,106,0.0,0.0,87,0.00,,,0.00,0.0,meteohub,2013-02-05 10:50:00,
2013-02-05 06:55:00,70.0,66.0,30.03,ESE,107,0.0,0.0,87,0.00,,,0.00,0.0,meteohub,2013-02-05 10:55:00,
2013-02-05 06:59:00,69.8,65.8,30.04,ESE,107,0.0,0.0,87,0.00,,,0.00,0.0,meteohub,2013-02-05 10:59:00,
2013-02-05 07:04:00,69.6,65.7,30.04,ESE,107,0.0,0.0,87,0.00,,,0.00,11.0,meteohub,2013-02-05 11:04:00,
2013-02-05 07:09:00,69.4,65.7,30.04,ESE,107,0.0,0.0,88,0.00,,,0.00,14.0,meteohub,2013-02-05 11:09:00,
2013-02-05 07:15:00,69.6,65.8,30.04,ESE,106,0.0,0.0,88,0.00,,,0.00,21.0,meteohub,2013-02-05 11:15:00,
2013-02-05 07:20:00,69.8,66.0,30.04,ESE,106,0.0,0.0,88,0.00,,,0.00,40.0,meteohub,2013-02-05 11:20:00,
2013-02-05 07:25:00,70.0,66.2,30.04,ESE,106,0.0,0.0,88,0.00,,,0.00,58.0,meteohub,2013-02-05 11:25:00,
2013-02-05 07:30:00,70.3,66.2,30.05,ESE,107,0.0,0.0,87,0.00,,,0.00,95.0,meteohub,2013-02-05 11:30:00,
2013-02-05 07:35:00,70.5,66.4,30.05,ESE,106,0.0,0.0,87,0.00,,,0.00,114.0,meteohub,2013-02-05 11:35:00,
2013-02-05 07:40:00,71.1,66.7,30.05,ESE,107,0.0,0.0,86,0.00,,,0.00,132.0,meteohub,2013-02-05 11:40:00,
2013-02-05 07:45:00,71.4,66.7,30.05,ESE,107,0.0,0.0,85,0.00,,,0.00,148.0,meteohub,2013-02-05 11:45:00,
2013-02-05 07:50:00,72.0,67.3,30.05,ESE,107,0.0,0.0,85,0.00,,,0.00,167.0,meteohub,2013-02-05 11:50:00,
2013-02-05 07:55:00,72.5,67.1,30.05,ESE,107,0.0,0.0,83,0.00,,,0.00,188.0,meteohub,2013-02-05 11:55:00,
2013-02-05 08:00:00,72.9,67.1,30.06,ESE,107,0.0,0.0,82,0.00,,,0.00,208.0,meteohub,2013-02-05 12:00:00,
2013-02-05 08:05:00,73.2,67.1,30.06,ESE,107,0.0,0.0,81,0.00,,,0.00,227.0,meteohub,2013-02-05 12:05:00,
2013-02-05 08:10:00,73.8,67.3,30.06,ESE,107,0.0,0.0,80,0.00,,,0.00,248.0,meteohub,2013-02-05 12:10:00,
2013-02-05 08:15:00,73.9,66.6,30.07,ESE,107,0.0,0.0,78,0.00,,,0.00,269.0,meteohub,2013-02-05 12:15:00,
2013-02-05 08:20:00,75.0,67.3,30.07,ESE,107,0.0,0.0,77,0.00,,,0.00,292.0,meteohub,2013-02-05 12:20:00,
2013-02-05 08:25:00,75.6,67.5,30.07,ESE,106,0.0,0.0,76,0.00,,,0.00,317.0,meteohub,2013-02-05 12:25:00,
2013-02-05 08:31:00,75.4,66.6,30.07,ESE,106,0.0,1.0,74,0.00,,,0.00,338.0,meteohub,2013-02-05 12:31:00,
2013-02-05 08:35:00,75.4,66.2,30.07,ESE,107,0.0,1.0,73,0.00,,,0.00,350.0,meteohub,2013-02-05 12:35:00,
2013-02-05 08:41:00,76.1,66.4,30.07,ESE,107,0.0,1.0,72,0.00,,,0.00,366.0,meteohub,2013-02-05 12:41:00,
2013-02-05 08:46:00,77.0,66.0,30.08,ESE,106,0.0,1.0,69,0.00,,,0.00,387.0,meteohub,2013-02-05 12:46:00,
2013-02-05 08:51:00,77.4,65.5,30.08,ESE,107,0.0,6.0,67,0.00,,,0.00,408.0,meteohub,2013-02-05 12:51:00,
2013-02-05 08:56:00,78.1,65.8,30.08,ESE,107,6.0,6.0,66,0.00,,,0.00,422.0,meteohub,2013-02-05 12:56:00,
2013-02-05 09:01:00,78.1,66.2,30.09,SE,137,0.0,7.0,67,0.00,,,0.00,442.0,meteohub,2013-02-05 13:01:00,
2013-02-05 09:06:00,78.4,66.2,30.09,SE,137,0.0,7.0,66,0.00,,,0.00,459.0,meteohub,2013-02-05 13:06:00,
2013-02-05 09:11:00,79.2,66.4,30.09,SE,137,0.0,7.0,65,0.00,,,0.00,479.0,meteohub,2013-02-05 13:11:00,
2013-02-05 09:16:00,79.3,66.0,30.09,SSE,148,0.0,6.0,64,0.00,,,0.00,498.0,meteohub,2013-02-05 13:16:00,
2013-02-05 09:21:00,79.9,65.7,30.09,SE,144,0.0,6.0,62,0.00,,,0.00,524.0,meteohub,2013-02-05 13:21:00,
2013-02-05 09:26:00,80.1,66.4,30.09,ESE,116,0.0,6.0,63,0.00,,,0.00,537.0,meteohub,2013-02-05 13:26:00,
2013-02-05 09:31:00,80.1,65.8,30.09,SE,133,8.0,8.0,62,0.00,,,0.00,549.0,meteohub,2013-02-05 13:31:00,
2013-02-05 09:36:00,80.2,66.0,30.09,SE,145,0.0,11.0,62,0.00,,,0.00,567.0,meteohub,2013-02-05 13:36:00,
2013-02-05 09:41:00,80.4,66.2,30.09,SSE,147,12.0,12.0,62,0.00,,,0.00,586.0,meteohub,2013-02-05 13:41:00,
2013-02-05 09:46:00,80.8,66.6,30.10,ESE,117,0.0,13.0,62,0.00,,,0.00,598.0,meteohub,2013-02-05 13:46:00,
2013-02-05 09:51:00,80.8,66.6,30.10,ENE,66,0.0,13.0,62,0.00,,,0.00,623.0,meteohub,2013-02-05 13:51:00,
2013-02-05 09:56:00,81.0,66.7,30.10,NE,51,0.0,13.0,62,0.00,,,0.00,649.0,meteohub,2013-02-05 13:56:00,
2013-02-05 10:01:00,81.1,66.9,30.09,ESE,116,0.0,10.0,62,0.00,,,0.00,572.0,meteohub,2013-02-05 14:01:00,
2013-02-05 10:06:00,81.7,67.5,30.09,SE,140,0.0,10.0,62,0.00,,,0.00,584.0,meteohub,2013-02-05 14:06:00,
2013-02-05 10:11:00,81.9,68.0,30.09,ENE,59,6.0,10.0,63,0.00,,,0.00,758.0,meteohub,2013-02-05 14:11:00,
2013-02-05 10:16:00,81.7,68.4,30.10,ENE,62,3.0,17.0,64,0.00,,,0.00,725.0,meteohub,2013-02-05 14:16:00,
2013-02-05 10:21:00,82.2,68.4,30.10,ENE,78,2.0,17.0,63,0.00,,,0.00,730.0,meteohub,2013-02-05 14:21:00,
2013-02-05 10:26:00,82.6,68.7,30.10,East,95,1.0,14.0,63,0.00,,,0.00,823.0,meteohub,2013-02-05 14:26:00,
2013-02-05 10:31:00,82.6,68.2,30.09,East,85,6.0,10.0,62,0.00,,,0.00,239.0,meteohub,2013-02-05 14:31:00,
2013-02-05 10:37:00,82.4,68.5,30.09,ENE,72,5.0,10.0,63,0.00,,,0.00,927.0,meteohub,2013-02-05 14:37:00,
2013-02-05 10:41:00,82.2,68.4,30.09,East,86,3.0,10.0,63,0.00,,,0.00,927.0,meteohub,2013-02-05 14:41:00,
2013-02-05 10:47:00,82.8,68.4,30.09,ESE,104,3.0,8.0,62,0.00,,,0.00,848.0,meteohub,2013-02-05 14:47:00,
2013-02-05 10:52:00,83.1,68.7,30.09,SE,145,5.0,12.0,62,0.00,,,0.00,324.0,meteohub,2013-02-05 14:52:00,
2013-02-05 10:57:00,82.9,68.2,30.09,East,89,0.0,12.0,61,0.00,,,0.00,357.0,meteohub,2013-02-05 14:57:00,
2013-02-05 11:02:00,82.6,67.8,30.09,ESE,107,5.0,12.0,61,0.00,,,0.00,345.0,meteohub,2013-02-05 15:02:00,
2013-02-05 11:07:00,82.4,67.6,30.09,East,88,5.0,11.0,61,0.00,,,0.00,324.0,meteohub,2013-02-05 15:07:00,
2013-02-05 11:12:00,82.8,67.5,30.09,SSE,155,2.0,12.0,60,0.00,,,0.00,357.0,meteohub,2013-02-05 15:12:00,
2013-02-05 11:17:00,82.4,66.6,30.09,East,99,0.0,12.0,59,0.00,,,0.00,274.0,meteohub,2013-02-05 15:17:00,
2013-02-05 11:22:00,81.9,67.1,30.09,East,99,5.0,12.0,61,0.00,,,0.00,239.0,meteohub,2013-02-05 15:22:00,
2013-02-05 11:27:00,81.3,66.6,30.09,ENE,68,10.0,16.0,61,0.00,,,0.00,999.0,meteohub,2013-02-05 15:27:00,
2013-02-05 11:32:00,82.2,66.9,30.08,East,89,6.0,16.0,60,0.00,,,0.00,971.0,meteohub,2013-02-05 15:32:00,
2013-02-05 11:37:00,81.9,67.1,30.08,SE,126,2.0,16.0,61,0.00,,,0.00,222.0,meteohub,2013-02-05 15:37:00,
2013-02-05 11:42:00,82.2,67.8,30.08,East,88,4.0,16.0,62,0.00,,,0.00,329.0,meteohub,2013-02-05 15:42:00,
2013-02-05 11:47:00,82.4,68.0,30.07,East,100,7.0,16.0,62,0.00,,,0.00,419.0,meteohub,2013-02-05 15:47:00,
2013-02-05 11:52:00,82.2,67.8,30.07,ESE,110,2.0,12.0,62,0.00,,,0.00,348.0,meteohub,2013-02-05 15:52:00,
2013-02-05 11:57:00,81.9,68.0,30.07,East,86,1.0,18.0,63,0.00,,,0.00,324.0,meteohub,2013-02-05 15:57:00,
2013-02-05 12:02:00,81.3,68.4,30.07,East,100,8.0,18.0,65,0.00,,,0.00,406.0,meteohub,2013-02-05 16:02:00,
2013-02-05 12:07:00,82.0,69.1,30.07,East,92,6.0,18.0,65,0.00,,,0.00,994.0,meteohub,2013-02-05 16:07:00,
2013-02-05 12:12:00,83.1,69.6,30.07,East,97,7.0,13.0,64,0.00,,,0.00,1043.0,meteohub,2013-02-05 16:12:00,
2013-02-05 12:17:00,83.7,69.3,30.07,ESE,120,2.0,13.0,62,0.00,,,0.00,1103.0,meteohub,2013-02-05 16:17:00,
2013-02-05 12:22:00,84.4,68.9,30.07,North,10,5.0,11.0,60,0.00,,,0.00,1121.0,meteohub,2013-02-05 16:22:00,
2013-02-05 12:28:00,84.6,68.7,30.06,East,97,3.0,12.0,59,0.00,,,0.00,1161.0,meteohub,2013-02-05 16:28:00,
2013-02-05 12:33:00,84.7,68.9,30.06,ESE,102,2.0,12.0,59,0.00,,,0.00,1019.0,meteohub,2013-02-05 16:33:00,
2013-02-05 12:38:00,84.7,68.9,30.06,ESE,106,8.0,12.0,59,0.00,,,0.00,289.0,meteohub,2013-02-05 16:38:00,
2013-02-05 12:43:00,83.8,68.5,30.05,ESE,121,0.0,13.0,60,0.00,,,0.00,1049.0,meteohub,2013-02-05 16:43:00,
2013-02-05 12:48:00,83.5,68.5,30.05,ENE,68,6.0,13.0,61,0.00,,,0.00,280.0,meteohub,2013-02-05 16:48:00,
2013-02-05 12:53:00,82.9,68.5,30.05,ENE,78,10.0,13.0,62,0.00,,,0.00,896.0,meteohub,2013-02-05 16:53:00,
2013-02-05 12:58:00,82.9,68.5,30.05,SE,127,4.0,14.0,62,0.00,,,0.00,371.0,meteohub,2013-02-05 16:58:00,
2013-02-05 13:03:00,82.8,68.4,30.05,East,86,6.0,18.0,62,0.00,,,0.00,257.0,meteohub,2013-02-05 17:03:00,
2013-02-05 13:08:00,82.4,68.0,30.05,East,79,7.0,18.0,62,0.00,,,0.00,1059.0,meteohub,2013-02-05 17:08:00,
2013-02-05 13:13:00,83.5,69.1,30.04,ENE,72,0.0,18.0,62,0.00,,,0.00,1130.0,meteohub,2013-02-05 17:13:00,
2013-02-05 13:18:00,84.0,69.1,30.04,ENE,71,8.0,21.0,61,0.00,,,0.00,354.0,meteohub,2013-02-05 17:18:00,
2013-02-05 13:23:00,83.7,69.3,30.04,NE,54,8.0,21.0,62,0.00,,,0.00,343.0,meteohub,2013-02-05 17:23:00,
2013-02-05 13:28:00,82.6,68.7,30.04,East,85,7.0,21.0,63,0.00,,,0.00,234.0,meteohub,2013-02-05 17:28:00,
2013-02-05 13:33:00,81.9,68.9,30.04,East,93,9.0,18.0,65,0.00,,,0.00,236.0,meteohub,2013-02-05 17:33:00,
2013-02-05 13:38:00,81.1,68.7,30.04,NE,37,8.0,18.0,66,0.00,,,0.00,236.0,meteohub,2013-02-05 17:38:00,
2013-02-05 13:43:00,81.1,68.7,30.03,ENE,65,8.0,16.0,66,0.00,,,0.00,246.0,meteohub,2013-02-05 17:43:00,
2013-02-05 13:48:00,81.1,68.7,30.03,ENE,71,11.0,16.0,66,0.00,,,0.00,352.0,meteohub,2013-02-05 17:48:00,
2013-02-05 13:53:00,81.7,68.7,30.03,ENE,75,7.0,17.0,65,0.00,,,0.00,487.0,meteohub,2013-02-05 17:53:00,
2013-02-05 13:58:00,81.9,68.9,30.02,East,100,7.0,18.0,65,0.00,,,0.00,229.0,meteohub,2013-02-05 17:58:00,
2013-02-05 14:03:00,82.2,69.3,30.02,ESE,107,0.0,18.0,65,0.00,,,0.00,269.0,meteohub,2013-02-05 18:03:00,
2013-02-05 14:08:00,82.8,69.3,30.02,East,92,2.0,18.0,64,0.00,,,0.00,961.0,meteohub,2013-02-05 18:08:00,
2013-02-05 14:13:00,82.6,69.1,30.02,ENE,78,0.0,13.0,64,0.00,,,0.00,215.0,meteohub,2013-02-05 18:13:00,
2013-02-05 14:18:00,82.2,69.3,30.02,ENE,71,9.0,16.0,65,0.00,,,0.00,299.0,meteohub,2013-02-05 18:18:00,
2013-02-05 14:23:00,82.0,69.1,30.02,ENE,78,7.0,16.0,65,0.00,,,0.00,341.0,meteohub,2013-02-05 18:23:00,
2013-02-05 14:28:00,81.7,68.7,30.01,ESE,103,2.0,19.0,65,0.00,,,0.00,236.0,meteohub,2013-02-05 18:28:00,
2013-02-05 14:34:00,81.3,69.3,30.01,SE,124,6.0,19.0,67,0.00,,,0.00,306.0,meteohub,2013-02-05 18:34:00,
2013-02-05 14:38:00,81.3,70.5,30.01,East,93,7.0,19.0,70,0.00,,,0.00,329.0,meteohub,2013-02-05 18:38:00,
2013-02-05 14:44:00,81.1,70.9,30.01,ESE,113,6.0,16.0,71,0.00,,,0.00,449.0,meteohub,2013-02-05 18:44:00,
2013-02-05 14:49:00,80.8,70.9,30.01,ENE,71,8.0,16.0,72,0.00,,,0.00,489.0,meteohub,2013-02-05 18:49:00,
2013-02-05 14:54:00,80.8,70.9,30.01,East,97,5.0,16.0,72,0.00,,,0.00,345.0,meteohub,2013-02-05 18:54:00,
2013-02-05 14:59:00,80.4,70.5,30.01,SE,130,7.0,16.0,72,0.00,,,0.00,282.0,meteohub,2013-02-05 18:59:00,
2013-02-05 15:04:00,80.1,70.2,30.01,ENE,71,0.0,16.0,72,0.00,,,0.00,211.0,meteohub,2013-02-05 19:04:00,
2013-02-05 15:09:00,79.9,70.5,30.01,East,93,11.0,13.0,73,0.00,,,0.00,287.0,meteohub,2013-02-05 19:09:00,
2013-02-05 15:14:00,79.9,70.5,30.01,East,96,6.0,13.0,73,0.00,,,0.00,333.0,meteohub,2013-02-05 19:14:00,
2013-02-05 15:19:00,79.9,70.0,30.01,ENE,75,6.0,13.0,72,0.00,,,0.00,401.0,meteohub,2013-02-05 19:19:00,
2013-02-05 15:24:00,80.2,69.6,30.01,ESE,103,7.0,13.0,70,0.00,,,0.00,406.0,meteohub,2013-02-05 19:24:00,
2013-02-05 15:29:00,81.1,71.6,30.00,ENE,61,10.0,13.0,73,0.00,,,0.00,398.0,meteohub,2013-02-05 19:29:00,
2013-02-05 15:34:00,80.2,72.0,30.00,ENE,75,12.0,13.0,76,0.00,,,0.00,371.0,meteohub,2013-02-05 19:34:00,
2013-02-05 15:39:00,79.9,72.0,30.00,ENE,68,12.0,19.0,77,0.00,,,0.00,389.0,meteohub,2013-02-05 19:39:00,
2013-02-05 15:44:00,79.3,72.0,30.01,NE,44,7.0,19.0,78,0.00,,,0.00,290.0,meteohub,2013-02-05 19:44:00,
2013-02-05 15:49:00,78.8,71.8,30.01,NE,55,6.0,16.0,79,0.00,,,0.00,326.0,meteohub,2013-02-05 19:49:00,
2013-02-05 15:55:00,78.6,71.6,30.01,ENE,62,7.0,18.0,79,0.00,,,0.00,287.0,meteohub,2013-02-05 19:55:00,
2013-02-05 16:00:00,78.4,71.1,30.01,NE,55,3.0,18.0,78,0.00,,,0.00,245.0,meteohub,2013-02-05 20:00:00,
2013-02-05 16:05:00,78.4,71.1,30.01,NE,52,3.0,16.0,78,0.00,,,0.00,169.0,meteohub,2013-02-05 20:05:00,
2013-02-05 16:10:00,78.3,71.2,30.01,NE,45,9.0,12.0,79,0.00,,,0.00,227.0,meteohub,2013-02-05 20:10:00,
2013-02-05 16:15:00,78.3,70.9,30.01,ENE,62,9.0,12.0,78,0.00,,,0.00,215.0,meteohub,2013-02-05 20:15:00,
2013-02-05 16:20:00,78.4,71.1,30.01,NE,42,2.0,12.0,78,0.00,,,0.00,211.0,meteohub,2013-02-05 20:20:00,
2013-02-05 16:25:00,78.6,70.9,30.01,NE,42,0.0,11.0,77,0.00,,,0.00,178.0,meteohub,2013-02-05 20:25:00,
2013-02-05 16:30:00,78.8,70.5,30.01,NE,47,7.0,11.0,76,0.00,,,0.00,143.0,meteohub,2013-02-05 20:30:00,
2013-02-05 16:35:00,78.8,70.2,30.01,ENE,66,0.0,12.0,75,0.00,,,0.00,137.0,meteohub,2013-02-05 20:35:00,
2013-02-05 16:40:00,78.6,70.0,30.01,ENE,65,7.0,12.0,75,0.00,,,0.00,123.0,meteohub,2013-02-05 20:40:00,
2013-02-05 16:45:00,78.4,69.8,30.01,East,92,5.0,12.0,75,0.00,,,0.00,128.0,meteohub,2013-02-05 20:45:00,
2013-02-05 16:50:00,78.3,69.3,30.01,ENE,59,0.0,12.0,74,0.00,,,0.00,123.0,meteohub,2013-02-05 20:50:00,
2013-02-05 16:55:00,78.3,69.3,30.01,East,83,0.0,12.0,74,0.00,,,0.00,109.0,meteohub,2013-02-05 20:55:00,
2013-02-05 17:00:00,78.1,69.1,30.01,East,99,6.0,16.0,74,0.00,,,0.00,84.0,meteohub,2013-02-05 21:00:00,
2013-02-05 17:05:00,78.1,69.4,30.01,NE,47,0.0,16.0,75,0.00,,,0.00,107.0,meteohub,2013-02-05 21:05:00,
2013-02-05 17:11:00,78.1,69.4,30.01,East,80,4.0,16.0,75,0.00,,,0.00,141.0,meteohub,2013-02-05 21:11:00,
2013-02-05 17:16:00,78.1,69.1,30.01,ESE,113,6.0,11.0,74,0.00,,,0.00,106.0,meteohub,2013-02-05 21:16:00,
2013-02-05 17:21:00,78.3,69.3,30.01,NE,54,3.0,11.0,74,0.00,,,0.00,76.0,meteohub,2013-02-05 21:21:00,
2013-02-05 17:26:00,78.4,69.8,30.01,East,80,0.0,11.0,75,0.00,,,0.00,72.0,meteohub,2013-02-05 21:26:00,
2013-02-05 17:31:00,78.3,69.6,30.02,East,86,5.0,8.0,75,0.00,,,0.00,72.0,meteohub,2013-02-05 21:31:00,
2013-02-05 17:36:00,78.1,70.0,30.02,ESE,123,0.0,8.0,76,0.00,,,0.00,70.0,meteohub,2013-02-05 21:36:00,
2013-02-05 17:41:00,78.3,70.0,30.02,ENE,68,0.0,8.0,76,0.00,,,0.00,49.0,meteohub,2013-02-05 21:41:00,
2013-02-05 17:46:00,78.3,69.6,30.02,ESE,102,2.0,8.0,75,0.00,,,0.00,39.0,meteohub,2013-02-05 21:46:00,
2013-02-05 17:51:00,78.3,70.0,30.02,East,82,5.0,7.0,76,0.00,,,0.00,30.0,meteohub,2013-02-05 21:51:00,
2013-02-05 17:56:00,78.1,70.3,30.02,ENE,71,0.0,8.0,77,0.00,,,0.00,21.0,meteohub,2013-02-05 21:56:00,
2013-02-05 18:01:00,78.1,70.3,30.02,East,85,5.0,10.0,77,0.00,,,0.00,18.0,meteohub,2013-02-05 22:01:00,
2013-02-05 18:06:00,78.1,70.7,30.02,East,95,6.0,11.0,78,0.00,,,0.00,12.0,meteohub,2013-02-05 22:06:00,
2013-02-05 18:11:00,77.7,70.7,30.02,East,96,0.0,11.0,79,0.00,,,0.00,9.0,meteohub,2013-02-05 22:11:00,
2013-02-05 18:16:00,77.5,70.5,30.02,ENE,76,0.0,11.0,79,0.00,,,0.00,5.0,meteohub,2013-02-05 22:16:00,
2013-02-05 18:21:00,77.5,70.9,30.02,East,88,7.0,11.0,80,0.00,,,0.00,0.0,meteohub,2013-02-05 22:21:00,
2013-02-05 18:27:00,77.5,70.9,30.02,ENE,58,2.0,11.0,80,0.00,,,0.00,0.0,meteohub,2013-02-05 22:27:00,
2013-02-05 18:32:00,77.4,70.7,30.02,East,93,0.0,11.0,80,0.00,,,0.00,0.0,meteohub,2013-02-05 22:32:00,
2013-02-05 18:37:00,77.4,70.7,30.02,East,90,0.0,10.0,80,0.00,,,0.00,0.0,meteohub,2013-02-05 22:37:00,
2013-02-05 18:42:00,77.2,70.9,30.02,ESE,112,0.0,10.0,81,0.00,,,0.00,0.0,meteohub,2013-02-05 22:42:00,
2013-02-05 18:47:00,77.0,70.7,30.02,East,92,0.0,10.0,81,0.00,,,0.00,0.0,meteohub,2013-02-05 22:47:00,
2013-02-05 18:52:00,77.0,70.7,30.02,ENE,68,0.0,10.0,81,0.00,,,0.00,0.0,meteohub,2013-02-05 22:52:00,
2013-02-05 18:57:00,77.0,70.7,30.02,East,79,0.0,8.0,81,0.00,,,0.00,0.0,meteohub,2013-02-05 22:57:00,
2013-02-05 19:02:00,76.8,70.5,30.02,ENE,61,6.0,8.0,81,0.00,,,0.00,0.0,meteohub,2013-02-05 23:02:00,
2013-02-05 19:07:00,76.8,70.5,30.02,ENE,75,6.0,8.0,81,0.00,,,0.00,0.0,meteohub,2013-02-05 23:07:00,
2013-02-05 19:12:00,76.8,70.9,30.02,NE,52,0.0,7.0,82,0.00,,,0.00,0.0,meteohub,2013-02-05 23:12:00,
2013-02-05 19:17:00,76.8,70.9,30.03,East,88,0.0,7.0,82,0.00,,,0.00,0.0,meteohub,2013-02-05 23:17:00,
2013-02-05 19:22:00,76.8,70.9,30.03,East,89,0.0,6.0,82,0.00,,,0.00,0.0,meteohub,2013-02-05 23:22:00,
2013-02-05 19:27:00,76.8,70.9,30.03,East,86,0.0,3.0,82,0.00,,,0.00,0.0,meteohub,2013-02-05 23:27:00,
2013-02-05 19:32:00,77.0,71.1,30.03,NE,54,0.0,0.0,82,0.00,,,0.00,0.0,meteohub,2013-02-05 23:32:00,
2013-02-05 19:37:00,77.0,71.1,30.03,NE,52,0.0,0.0,82,0.00,,,0.00,0.0,meteohub,2013-02-05 23:37:00,
2013-02-05 19:42:00,77.2,71.2,30.03,NE,51,0.0,2.0,82,0.00,,,0.00,0.0,meteohub,2013-02-05 23:42:00,
2013-02-05 19:47:00,77.4,71.8,30.03,NE,51,0.0,2.0,83,0.00,,,0.00,0.0,meteohub,2013-02-05 23:47:00,
2013-02-05 19:52:00,77.0,71.8,30.03,NE,51,0.0,0.0,84,0.00,,,0.00,0.0,meteohub,2013-02-05 23:52:00,
2013-02-05 19:57:00,76.8,71.6,30.03,East,82,0.0,2.0,84,0.00,,,0.00,0.0,meteohub,2013-02-05 23:57:00,
2013-02-05 20:02:00,76.8,72.0,30.04,East,82,0.0,4.0,85,0.00,,,0.00,0.0,meteohub,2013-02-06 00:02:00,
2013-02-05 20:07:00,76.6,71.8,30.04,East,82,0.0,4.0,85,0.00,,,0.00,0.0,meteohub,2013-02-06 00:07:00,
2013-02-05 20:12:00,76.5,71.6,30.04,NE,56,5.0,7.0,85,0.00,,,0.00,0.0,meteohub,2013-02-06 00:12:00,
2013-02-05 20:17:00,76.5,71.6,30.04,NE,37,0.0,7.0,85,0.00,,,0.00,0.0,meteohub,2013-02-06 00:17:00,
2013-02-05 20:22:00,76.5,71.6,30.04,ENE,59,5.0,7.0,85,0.00,,,0.00,0.0,meteohub,2013-02-06 00:22:00,
2013-02-05 20:28:00,76.5,71.6,30.04,NE,49,0.0,7.0,85,0.00,,,0.00,0.0,meteohub,2013-02-06 00:28:00,
2013-02-05 20:33:00,76.3,71.4,30.04,East,83,2.0,7.0,85,0.00,,,0.00,0.0,meteohub,2013-02-06 00:33:00,
2013-02-05 20:38:00,76.1,71.2,30.04,ESE,113,0.0,14.0,85,0.00,,,0.00,0.0,meteohub,2013-02-06 00:38:00,
2013-02-05 20:43:00,75.9,71.4,30.04,SE,145,0.0,14.0,86,0.00,,,0.00,0.0,meteohub,2013-02-06 00:43:00,
2013-02-05 20:48:00,75.7,71.6,30.04,SSE,162,3.0,14.0,87,0.00,,,0.00,0.0,meteohub,2013-02-06 00:48:00,
2013-02-05 20:53:00,75.0,71.2,30.04,East,100,4.0,12.0,88,0.00,,,0.00,0.0,meteohub,2013-02-06 00:53:00,
2013-02-05 20:58:00,73.9,70.5,30.05,ESE,112,112.0,112.0,89,0.00,,,0.00,0.0,meteohub,2013-02-06 00:58:00,
2013-02-05 21:03:00,73.6,70.7,30.05,SE,140,0.0,14.0,91,0.02,,,0.02,0.0,meteohub,2013-02-06 01:03:00,
2013-02-05 21:08:00,73.2,70.7,30.05,SE,140,0.0,112.0,92,0.04,,,0.04,0.0,meteohub,2013-02-06 01:08:00,
2013-02-05 21:13:00,73.0,71.2,30.05,SSE,147,0.0,112.0,94,0.04,,,0.04,0.0,meteohub,2013-02-06 01:13:00,
2013-02-05 21:18:00,72.9,71.4,30.05,SE,144,0.0,112.0,95,0.05,,,0.05,0.0,meteohub,2013-02-06 01:18:00,
2013-02-05 21:23:00,72.9,71.4,30.05,ESE,119,0.0,1.0,95,0.05,,,0.05,0.0,meteohub,2013-02-06 01:23:00,
2013-02-05 21:28:00,72.7,71.4,30.05,East,92,0.0,3.0,96,0.05,,,0.05,0.0,meteohub,2013-02-06 01:28:00,
2013-02-05 21:33:00,72.7,71.4,30.05,SE,134,5.0,5.0,96,0.05,,,0.05,0.0,meteohub,2013-02-06 01:33:00,
2013-02-05 21:38:00,72.7,71.4,30.05,SE,127,0.0,5.0,96,0.05,,,0.05,0.0,meteohub,2013-02-06 01:38:00,
2013-02-05 21:44:00,72.7,71.4,30.05,SE,127,0.0,5.0,96,0.05,,,0.05,0.0,meteohub,2013-02-06 01:44:00,
2013-02-05 21:49:00,72.5,71.6,30.05,SE,127,0.0,5.0,97,0.05,,,0.05,0.0,meteohub,2013-02-06 01:49:00,
2013-02-05 21:54:00,72.5,71.6,30.05,SE,127,0.0,1.0,97,0.05,,,0.05,0.0,meteohub,2013-02-06 01:54:00,
2013-02-05 21:59:00,72.7,71.8,30.05,SE,127,0.0,0.0,97,0.04,,,0.05,0.0,meteohub,2013-02-06 01:59:00,
2013-02-05 22:04:00,72.7,71.8,30.05,SE,126,0.0,0.0,97,0.02,,,0.05,0.0,meteohub,2013-02-06 02:04:00,
2013-02-05 22:09:00,72.5,71.6,30.05,SE,127,0.0,0.0,97,0.01,,,0.05,0.0,meteohub,2013-02-06 02:09:00,
2013-02-05 22:14:00,72.3,71.4,30.05,SE,127,0.0,0.0,97,0.01,,,0.05,0.0,meteohub,2013-02-06 02:14:00,
2013-02-05 22:19:00,72.3,71.4,30.05,SE,127,0.0,0.0,97,0.00,,,0.05,0.0,meteohub,2013-02-06 02:19:00,
2013-02-05 22:24:00,72.3,71.4,30.05,SE,127,0.0,0.0,97,0.00,,,0.05,0.0,meteohub,2013-02-06 02:24:00,
2013-02-05 22:29:00,72.3,71.8,30.05,SE,127,0.0,0.0,98,0.00,,,0.05,0.0,meteohub,2013-02-06 02:29:00,
2013-02-05 22:34:00,72.3,71.8,30.05,SE,127,0.0,0.0,98,0.00,,,0.05,0.0,meteohub,2013-02-06 02:34:00,
2013-02-05 22:39:00,72.3,71.8,30.05,SE,127,0.0,0.0,98,0.00,,,0.05,0.0,meteohub,2013-02-06 02:39:00,
2013-02-05 22:44:00,72.1,71.6,30.05,SE,126,0.0,0.0,98,0.00,,,0.05,0.0,meteohub,2013-02-06 02:44:00,
2013-02-05 22:49:00,72.1,71.6,30.05,SE,127,0.0,0.0,98,0.00,,,0.05,0.0,meteohub,2013-02-06 02:49:00,
2013-02-05 22:54:00,72.1,71.2,30.05,SE,127,0.0,0.0,97,0.00,,,0.05,0.0,meteohub,2013-02-06 02:54:00,
2013-02-05 22:59:00,72.3,71.8,30.05,SE,127,0.0,0.0,98,0.00,,,0.05,0.0,meteohub,2013-02-06 02:59:00,
2013-02-05 23:04:00,72.5,72.0,30.05,SE,128,0.0,0.0,98,0.00,,,0.05,0.0,meteohub,2013-02-06 03:04:00,
2013-02-05 23:09:00,72.1,71.2,30.05,SE,127,0.0,0.0,97,0.00,,,0.05,0.0,meteohub,2013-02-06 03:09:00,
2013-02-05 23:14:00,72.3,71.4,30.05,SE,127,0.0,0.0,97,0.00,,,0.05,0.0,meteohub,2013-02-06 03:14:00,
2013-02-05 23:19:00,72.3,71.4,30.05,SE,126,0.0,0.0,97,0.00,,,0.05,0.0,meteohub,2013-02-06 03:19:00,
2013-02-05 23:25:00,72.5,71.6,30.05,SE,127,0.0,0.0,97,0.00,,,0.05,0.0,meteohub,2013-02-06 03:25:00,
2013-02-05 23:30:00,72.5,71.6,30.04,SE,128,0.0,0.0,97,0.00,,,0.05,0.0,meteohub,2013-02-06 03:30:00,
2013-02-05 23:35:00,72.5,71.6,30.04,SE,127,0.0,0.0,97,0.00,,,0.05,0.0,meteohub,2013-02-06 03:35:00,
2013-02-05 23:40:00,72.7,71.4,30.04,SE,128,0.0,0.0,96,0.00,,,0.05,0.0,meteohub,2013-02-06 03:40:00,
2013-02-05 23:45:00,72.5,71.2,30.04,SE,128,0.0,0.0,96,0.00,,,0.05,0.0,meteohub,2013-02-06 03:45:00,
2013-02-05 23:50:00,72.7,71.4,30.04,SE,127,0.0,0.0,96,0.00,,,0.05,0.0,meteohub,2013-02-06 03:50:00,
2013-02-05 23:55:00,72.7,71.4,30.04,SE,128,0.0,0.0,96,0.00,,,0.05,0.0,meteohub,2013-02-06 03:55:00,